Wind_Speed
29 26 25 24 24 25 25 23 23 24 24 25 25 21 19 18 17 17 17 16 16 15 13 12 11 11 10 10 9 8 8 8 9 11 13 14 16 17 18 18 19 20 21 22
32 30 29 28 25 23 22 22 25 27 26 27 28 25 22 21 19 18 18 18 17 16 15 14 13 13 12 11 10 10 9 9 10 11 12 13 15 16 17 17 18 19 20 21
32 31 32 31 25 23 23 25 26 28 29 30 29 29 27 25 22 21 22 21 19 18 17 16 15 14 14 13 12 12 12 12 12 12 13 14 15 16 17 19 19 19 20 21
31 32 34 30 28 28 29 30 30 31 32 33 33 30 29 26 25 25 24 22 21 20 19 18 17 16 16 15 14 14 14 14 14 14 14 14 15 16 17 18 19 19 19 21
30 31 31 29 29 29 30 31 33 34 33 34 36 34 32 30 29 27 25 25 24 22 21 19 18 18 18 17 16 16 16 17 17 17 17 17 18 18 19 19 21 21 21 22
30 30 29 29 30 30 30 33 33 33 35 36 35 34 33 32 31 29 28 26 25 24 23 21 20 20 20 20 19 19 19 19 19 19 19 19 19 20 20 21 22 24 25 25
29 30 29 31 31 30 31 34 34 34 35 36 37 36 34 33 32 32 30 28 27 26 25 24 23 22 22 21 22 21 21 21 20 21 21 21 21 22 22 23 24 26 27 28
27 28 30 33 32 32 34 34 34 34 35 35 35 35 35 34 33 32 31 29 29 28 27 26 25 24 23 24 23 22 22 22 23 24 23 22 23 24 25 26 27 28 29 29
28 30 33 33 34 33 34 35 35 35 35 34 34 34 35 34 33 33 32 31 29 29 28 27 26 26 26 26 25 25 25 25 26 27 26 26 26 26 26 28 29 29 30 31
29 31 32 32 32 33 33 33 34 35 35 35 34 34 34 34 34 33 32 31 30 30 29 28 27 28 28 27 27 27 27 27 28 28 28 27 27 27 27 29 30 31 32 33
27 28 30 31 32 32 32 32 32 33 34 33 33 33 32 32 33 33 32 31 31 31 31 30 29 28 29 30 29 29 29 29 28 28 28 28 28 28 29 30 31 32 34 35
27 27 28 29 30 30 30 30 30 30 31 31 32 32 32 31 31 31 32 32 30 30 30 30 29 29 30 30 29 30 30 29 28 27 28 28 29 30 31 32 32 33 35 37
26 26 26 27 27 26 27 27 27 28 28 28 28 29 30 30 31 30 31 30 29 29 29 29 29 30 30 30 30 29 29 28 28 28 28 29 30 31 31 32 33 35 37 39
24 24 23 23 22 22 22 23 24 26 26 26 26 27 27 27 28 28 28 29 30 29 29 29 28 28 28 27 26 26 27 27 28 28 28 29 30 31 33 34 35 36 39 41
19 19 19 19 18 19 20 21 22 23 24 24 24 24 24 24 25 26 27 28 28 28 27 27 26 25 24 24 24 25 26 26 27 27 28 29 31 33 34 35 37 39 41 43
16 16 16 16 16 16 16 17 18 19 20 20 21 21 21 22 23 24 24 24 23 23 23 22 22 23 23 23 24 24 24 25 25 27 28 30 32 34 36 38 39 41 43 45
13 12 12 13 13 14 15 15 15 15 16 18 19 18 18 18 19 21 20 19 18 18 19 19 19 20 20 20 21 22 22 24 25 28 30 32 34 36 39 40 42 43 45 46
10 10 10 9 8 9 11 12 12 12 12 13 13 13 14 14 14 14 14 13 13 15 16 15 16 16 18 19 21 23 25 27 29 31 33 35 37 39 40 42 43 44 45 44
9 7 6 7 6 5 6 7 7 7 8 7 7 7 8 9 10 11 12 12 13 14 14 14 15 17 19 21 23 25 27 29 31 33 35 37 39 40 41 42 42 42 42 42
7 7 6 5 5 4 4 5 4 4 5 6 6 6 6 7 7 8 9 10 11 12 13 15 17 20 22 24 26 28 30 32 34 35 37 38 39 40 40 41 40 40 40 39
8 7 7 7 6 5 4 4 4 4 5 4 4 3 3 4 5 7 9 10 12 14 16 19 21 23 25 27 29 31 32 34 35 36 38 38 39 39 39 39 38 38 38 37
9 8 8 7 6 6 5 4 4 3 3 3 4 5 6 7 9 10 12 14 16 18 20 22 24 26 28 30 31 32 33 35 36 36 37 36 36 37 37 36 36 35 34 34
10 9 8 7 7 6 4 4 4 5 5 6 7 8 9 10 12 13 15 17 19 21 23 25 27 28 30 31 32 33 34 35 35 35 34 34 34 34 33 33 32 32 31 31
8 7 6 6 6 5 5 6 6 7 7 9 10 12 13 14 15 17 19 21 23 24 26 27 29 30 31 32 32 32 33 33 33 32 32 31 31 30 30 30 30 29 29 29
8 8 7 7 7 7 8 8 8 10 11 13 14 15 16 17 19 20 22 24 25 26 28 29 30 30 31 31 31 31 31 30 30 29 29 28 28 28 28 28 28 28 28 28
9 8 8 8 9 9 10 11 12 13 14 16 17 18 19 20 21 23 25 26 27 28 29 29 30 30 30 30 29 29 28 28 27 27 26 26 26 26 26 26 26 26 26 26
9 9 10 10 11 11 12 14 15 16 17 19 20 21 22 23 24 25 26 27 27 28 28 28 28 28 28 27 27 26 26 26 25 24 24 24 24 24 24 24 24 24 25 25
Wind_Direction
223 228 240 244 241 233 232 236 243 251 258 264 268 267 266 273 274 276 279 283 284 285 285 289 294 295 294 289 286 284 277 264 259 256 254 255 254 254 254 256 257 258 260 261
228 226 237 247 247 238 236 241 245 249 254 259 265 268 268 269 268 273 277 281 281 280 280 282 286 289 289 287 283 281 283 282 274 266 263 261 259 257 258 258 259 262 265 267
234 230 235 242 241 243 248 246 245 249 252 254 261 263 263 265 271 274 277 276 277 276 277 277 280 283 285 283 282 280 279 279 277 276 272 266 263 262 261 262 265 266 268 269
238 234 238 236 236 239 245 248 247 248 250 250 254 258 262 262 265 268 271 272 273 274 275 276 275 277 279 282 280 278 277 275 274 272 273 272 269 269 267 266 268 271 271 272
241 241 243 242 240 239 242 246 247 248 249 251 254 256 259 263 266 262 266 269 269 270 271 273 273 274 275 278 277 275 274 275 273 273 272 271 271 273 272 270 271 275 276 278
244 243 243 242 242 243 244 248 247 246 247 248 252 255 258 260 262 262 263 263 266 266 266 268 270 272 274 274 274 273 273 275 274 273 274 276 275 278 276 274 275 278 280 282
245 244 245 245 243 242 242 245 249 249 250 250 250 253 255 256 257 259 260 260 261 264 266 266 268 270 272 272 273 272 272 274 277 276 275 276 275 276 277 277 279 281 283 284
244 244 245 246 245 243 245 247 250 251 252 251 251 251 253 253 254 257 258 259 259 260 262 264 266 268 271 272 273 273 273 275 276 276 275 273 274 276 278 279 281 282 284 285
244 245 246 248 248 249 251 252 252 253 252 251 250 250 251 252 252 254 254 255 256 258 260 263 267 268 271 271 270 271 272 274 277 277 275 276 279 280 282 283 284 285 287 288
250 252 252 253 252 252 253 255 255 254 252 250 250 249 250 250 249 250 252 253 254 257 259 262 265 268 267 268 270 271 272 275 277 278 278 279 282 283 285 286 286 287 289 290
251 251 252 254 256 255 256 256 255 253 251 249 249 249 248 247 246 248 251 253 254 257 259 260 263 267 270 270 270 272 273 275 276 278 280 281 283 284 286 288 289 290 291 292
252 252 254 255 258 258 257 256 253 250 248 247 247 247 246 246 247 247 249 252 254 255 257 259 263 266 268 268 270 272 273 274 276 278 280 282 284 284 285 288 290 292 293 294
254 256 258 259 257 256 255 253 249 246 245 243 243 244 245 245 247 246 247 248 253 254 255 260 264 266 266 265 267 270 273 275 276 278 280 283 285 287 289 291 293 295 296 296
257 258 259 259 257 254 252 249 245 242 240 241 241 242 243 244 243 244 246 248 251 253 256 260 261 263 264 266 270 274 276 278 280 281 283 286 288 291 292 293 294 296 297 299
258 256 256 257 255 250 245 243 240 238 238 238 237 238 239 241 243 244 246 249 250 252 254 257 260 263 267 270 273 275 277 279 281 284 287 290 292 293 295 296 297 299 301 302
257 255 251 249 249 246 241 239 235 233 233 231 231 234 237 240 242 243 246 247 248 252 256 258 261 264 265 266 269 272 275 279 285 290 293 295 296 298 299 300 302 303 303 304
251 249 244 240 239 236 235 231 227 228 226 224 226 231 234 236 236 236 241 245 248 252 254 256 258 262 265 270 276 282 287 291 295 297 298 299 300 301 303 304 304 305 305 306
234 233 231 228 222 222 222 220 218 219 222 224 220 220 224 229 235 238 242 244 249 252 253 255 263 273 281 286 290 294 296 298 298 299 301 302 303 304 305 305 306 306 307 307
222 220 214 206 203 197 189 187 193 198 194 200 210 217 223 227 230 235 240 246 252 257 264 270 279 286 290 293 296 298 299 300 301 302 303 304 305 305 306 306 307 307 307 307
204 200 197 192 186 174 174 184 190 195 203 206 210 216 222 230 240 254 259 264 271 275 282 287 294 298 300 300 301 300 300 301 303 304 305 306 306 307 307 307 307 307 306 306
199 194 191 186 182 181 180 181 181 186 191 197 208 226 247 263 273 280 283 284 288 291 295 298 301 301 302 302 301 302 302 303 304 306 306 307 307 307 307 307 307 307 307 308
198 201 200 198 199 201 199 194 196 204 216 234 258 269 277 285 291 294 295 296 298 300 301 302 303 303 303 303 303 303 304 305 306 307 307 308 307 307 307 308 308 309 310 310
199 200 198 202 206 208 215 228 241 250 260 271 282 289 292 295 298 300 301 301 302 303 303 304 304 304 304 305 305 306 306 307 308 309 309 309 309 308 308 309 310 311 311 311
195 198 203 207 213 226 244 258 265 272 280 287 290 294 297 299 299 300 300 301 302 303 304 304 305 305 306 307 307 308 309 309 309 309 309 309 309 310 310 311 313 313 313 314
207 216 222 224 233 244 256 267 276 284 288 290 293 295 296 297 299 300 301 302 303 304 304 305 306 306 307 307 308 309 309 309 308 308 309 310 310 311 312 314 314 315 316 317
215 221 232 246 253 262 271 278 284 286 289 291 293 295 297 299 300 301 302 303 304 304 305 305 306 306 306 307 308 309 309 309 309 309 309 310 312 313 315 316 317 318 319 319
237 244 252 261 267 274 279 284 288 290 292 294 295 296 297 299 300 301 302 303 304 304 305 305 306 307 308 309 309 309 309 309 309 309 309 311 314 316 318 319 320 321 322 323
Height
5810 5813 5813 5815 5817 5819 5822 5825 5827 5827 5826 5824 5822 5822 5822 5822 5824 5827 5827 5827 5827 5827 5827 5827 5826 5826 5825 5825 5824 5824 5824 5824 5824 5825 5826 5827 5828 5829 5830 5831 5832 5832 5833 5833
5802 5806 5807 5809 5810 5812 5815 5819 5821 5821 5821 5820 5816 5818 5817 5817 5819 5821 5823 5824 5824 5824 5824 5824 5824 5823 5823 5822 5822 5822 5822 5822 5822 5823 5823 5823 5824 5825 5826 5826 5827 5828 5828 5828
5795 5799 5800 5802 5805 5807 5809 5812 5814 5814 5815 5814 5812 5811 5811 5812 5814 5816 5818 5819 5820 5820 5820 5820 5821 5821 5820 5820 5820 5820 5820 5820 5820 5820 5819 5819 5820 5820 5821 5822 5822 5823 5823 5823
5787 5791 5791 5798 5798 5800 5803 5805 5805 5806 5807 5807 5806 5806 5807 5808 5810 5812 5813 5815 5815 5816 5816 5816 5817 5817 5817 5817 5817 5817 5817 5816 5816 5816 5816 5816 5816 5816 5816 5816 5817 5817 5817 5818
5779 5782 5784 5790 5791 5792 5794 5796 5796 5798 5799 5800 5798 5801 5802 5803 5804 5806 5808 5809 5810 5811 5811 5812 5812 5812 5813 5813 5813 5813 5813 5813 5813 5813 5812 5812 5812 5812 5811 5811 5811 5812 5812 5812
5771 5774 5777 5781 5781 5783 5786 5786 5787 5789 5790 5791 5791 5793 5796 5797 5798 5800 5802 5803 5804 5805 5806 5807 5807 5807 5808 5809 5809 5809 5809 5808 5808 5808 5808 5807 5807 5807 5806 5806 5806 5806 5806 5805
5763 5765 5769 5769 5771 5775 5778 5777 5778 5779 5781 5783 5784 5786 5789 5790 5792 5793 5795 5797 5798 5799 5800 5801 5802 5802 5802 5803 5803 5803 5803 5803 5803 5803 5802 5802 5801 5801 5801 5800 5800 5800 5799 5798
5756 5759 5762 5759 5761 5765 5766 5767 5769 5771 5773 5775 5776 5778 5780 5782 5784 5786 5787 5790 5791 5793 5793 5794 5795 5796 5797 5797 5797 5797 5797 5797 5797 5797 5797 5796 5795 5795 5794 5794 5793 5793 5791 5790
5748 5751 5750 5751 5753 5755 5757 5759 5760 5762 5765 5766 5768 5769 5772 5773 5776 5779 5780 5783 5785 5786 5787 5788 5789 5790 5790 5791 5791 5791 5791 5791 5791 5790 5790 5789 5789 5788 5787 5787 5786 5785 5784 5782
5740 5741 5742 5744 5745 5747 5749 5751 5752 5753 5755 5757 5759 5760 5763 5766 5769 5771 5772 5775 5777 5779 5781 5782 5783 5784 5784 5784 5784 5785 5785 5784 5784 5783 5783 5782 5781 5780 5780 5779 5778 5776 5775 5773
5732 5734 5735 5736 5737 5739 5740 5741 5743 5744 5746 5748 5751 5752 5756 5758 5761 5764 5766 5768 5770 5772 5774 5775 5776 5777 5777 5777 5777 5777 5777 5777 5777 5776 5775 5775 5774 5773 5772 5770 5769 5767 5765 5764
5725 5726 5728 5729 5730 5730 5732 5733 5734 5736 5737 5740 5742 5745 5748 5751 5754 5757 5759 5761 5763 5765 5766 5768 5769 5770 5770 5770 5770 5770 5770 5770 5769 5769 5768 5767 5766 5765 5763 5762 5760 5758 5756 5753
5718 5719 5720 5721 5722 5723 5724 5725 5726 5728 5730 5732 5735 5738 5741 5744 5747 5750 5752 5754 5756 5758 5759 5761 5762 5762 5763 5763 5763 5763 5763 5762 5762 5761 5761 5760 5759 5757 5755 5754 5751 5749 5746 5742
5712 5713 5713 5714 5715 5716 5717 5717 5719 5721 5724 5726 5729 5732 5735 5737 5740 5743 5745 5747 5749 5751 5752 5754 5755 5755 5755 5755 5756 5756 5756 5755 5755 5754 5753 5752 5750 5748 5747 5745 5742 5739 5735 5731
5707 5707 5708 5708 5709 5710 5711 5712 5714 5716 5718 5721 5724 5726 5729 5732 5734 5737 5739 5741 5742 5744 5746 5747 5748 5748 5749 5749 5749 5749 5749 5748 5747 5746 5745 5743 5741 5739 5737 5734 5731 5728 5724 5720
5702 5702 5703 5704 5705 5705 5706 5708 5710 5712 5714 5716 5719 5722 5725 5727 5729 5731 5733 5735 5737 5739 5740 5741 5742 5742 5743 5743 5743 5742 5742 5741 5740 5739 5737 5735 5732 5729 5726 5723 5720 5716 5712 5707
5699 5700 5700 5701 5702 5703 5704 5705 5707 5709 5711 5713 5715 5718 5720 5722 5724 5726 5728 5730 5732 5733 5734 5735 5736 5736 5736 5737 5737 5736 5735 5734 5732 5731 5729 5726 5723 5720 5716 5712 5708 5704 5700 5694
5697 5698 5699 5700 5701 5701 5702 5704 5705 5707 5709 5711 5713 5715 5717 5719 5721 5723 5724 5726 5727 5729 5730 5730 5731 5731 5731 5731 5731 5730 5729 5727 5725 5722 5719 5716 5712 5709 5705 5701 5696 5692 5687 5682
5695 5697 5698 5699 5700 5701 5702 5703 5705 5707 5708 5710 5712 5713 5715 5717 5719 5721 5722 5723 5724 5725 5726 5726 5726 5726 5726 5725 5724 5722 5721 5718 5716 5713 5710 5706 5702 5698 5694 5689 5685 5680 5675 5671
5694 5696 5697 5698 5700 5701 5702 5704 5705 5706 5708 5710 5711 5713 5714 5716 5717 5719 5719 5720 5721 5721 5722 5722 5721 5720 5719 5718 5716 5714 5712 5709 5706 5703 5700 5696 5692 5687 5683 5678 5674 5669 5664 5660
5693 5695 5697 5698 5700 5701 5703 5704 5705 5707 5708 5710 5711 5712 5713 5714 5715 5716 5716 5717 5717 5717 5716 5716 5715 5714 5712 5710 5708 5706 5703 5700 5697 5693 5689 5685 5681 5677 5672 5668 5663 5659 5654 5649
5693 5695 5697 5698 5700 5701 5702 5704 5705 5706 5708 5709 5710 5710 5711 5712 5712 5712 5712 5712 5712 5711 5710 5709 5708 5706 5704 5702 5699 5696 5693 5690 5687 5683 5679 5675 5671 5667 5662 5658 5654 5649 5645 5640
5692 5694 5696 5698 5699 5700 5702 5703 5704 5705 5706 5707 5707 5708 5708 5708 5708 5708 5708 5707 5706 5705 5704 5702 5700 5698 5696 5693 5690 5687 5683 5680 5676 5673 5669 5665 5661 5657 5653 5649 5645 5641 5636 5632
5691 5693 5695 5697 5698 5699 5701 5701 5702 5703 5703 5704 5704 5704 5704 5704 5704 5703 5703 5701 5700 5699 5697 5695 5693 5690 5687 5684 5681 5677 5674 5671 5667 5664 5660 5656 5652 5649 5645 5641 5637 5633 5629 5625
5691 5693 5694 5696 5697 5698 5699 5699 5700 5701 5701 5701 5701 5701 5700 5700 5699 5698 5696 5695 5693 5691 5689 5687 5684 5681 5678 5675 5672 5669 5666 5662 5659 5655 5652 5649 5645 5642 5638 5634 5630 5626 5622 5618
5690 5692 5693 5694 5695 5696 5696 5697 5697 5697 5697 5697 5696 5696 5695 5694 5693 5691 5689 5688 5686 5684 5681 5679 5676 5673 5670 5667 5664 5661 5658 5655 5651 5648 5645 5642 5639 5635 5631 5628 5624 5620 5616 5612
5689 5690 5691 5692 5692 5693 5693 5693 5693 5693 5693 5692 5691 5690 5689 5687 5686 5684 5682 5680 5678 5676 5673 5671 5668 5665 5662 5659 5656 5653 5650 5647 5645 5642 5639 5636 5632 5629 5626 5622 5618 5615 5611 5607